| time (UTC) | temp F | wind direction | speed knots | gust knots | rain 1hr in | rain 24hr in | rain mn in | humidity % | barometer mb |
| 20260506125101 | 49 | 86 | 0.0 | 0.0 | 0.00 | 0.00 | 0.00 | 36 | |
| 20260506124908 | 49 | 86 | 0.0 | 0.0 | 0.00 | 0.00 | 0.00 | 36 | |
| 20260506124602 | 48 | 65 | 0.0 | 0.0 | 0.00 | 0.00 | 0.00 | 35 | |
| 20260506124408 | 48 | 65 | 0.0 | 0.0 | 0.00 | 0.00 | 0.00 | 35 | |
| 20260506124119 | 49 | 50 | 0.0 | 0.0 | 0.00 | 0.00 | 0.00 | 35 | |
| 20260506123908 | 49 | 50 | 0.0 | 0.0 | 0.00 | 0.00 | 0.00 | 35 | |
| 20260506123628 | 49 | 51 | 0.0 | 0.0 | 0.00 | 0.00 | 0.00 | 35 | |
| 20260506123408 | 49 | 51 | 0.0 | 0.0 | 0.00 | 0.00 | 0.00 | 35 | |
| 20260506122636 | 49 | 52 | 0.0 | 0.0 | 0.00 | 0.00 | 0.00 | 35 | |
| 20260506122410 | 49 | 52 | 0.0 | 0.0 | 0.00 | 0.00 | 0.00 | 35 | |
| 20260506122056 | 49 | 50 | 0.0 | 0.0 | 0.00 | 0.00 | 0.00 | 35 | |
| 20260506121908 | 49 | 50 | 0.0 | 0.0 | 0.00 | 0.00 | 0.00 | 35 | |
| 20260506121654 | 49 | 49 | 0.0 | 0.0 | 0.00 | 0.00 | 0.00 | 35 | |
| 20260506121408 | 49 | 49 | 0.0 | 0.0 | 0.00 | 0.00 | 0.00 | 35 | |
| 20260506121223 | 49 | 92 | 0.0 | 0.0 | 0.00 | 0.00 | 0.00 | 35 | |
| 20260506120908 | 49 | 92 | 0.0 | 0.0 | 0.00 | 0.00 | 0.00 | 35 | |
| 20260506120759 | 49 | 88 | 0.0 | 0.0 | 0.00 | 0.00 | 0.00 | 35 | |
| 20260506120408 | 49 | 88 | 0.0 | 0.0 | 0.00 | 0.00 | 0.00 | 35 | |
| 20260506120041 | 49 | 70 | 0.0 | 0.0 | 0.00 | 0.00 | 0.00 | 35 | |
| 20260506115908 | 49 | 70 | 0.0 | 0.0 | 0.00 | 0.00 | 0.00 | 35 | |
| 20260506115711 | 50 | 77 | 0.0 | 0.0 | 0.00 | 0.00 | 0.00 | 35 | |
| 20260506115408 | 50 | 77 | 0.0 | 0.0 | 0.00 | 0.00 | 0.00 | 35 | |
| 20260506115301 | 51 | 129 | 0.0 | 0.0 | 0.00 | 0.00 | 0.00 | 36 | |
| 20260506114908 | 51 | 129 | 0.0 | 0.0 | 0.00 | 0.00 | 0.00 | 36 | |
| 20260506114709 | 51 | 110 | 0.0 | 0.0 | 0.00 | 0.00 | 0.00 | 36 | |
| 20260506114408 | 51 | 110 | 0.0 | 0.0 | 0.00 | 0.00 | 0.00 | 36 | |
| 20260506114313 | 51 | 124 | 0.0 | 0.0 | 0.00 | 0.00 | 0.00 | 36 | |
| 20260506113908 | 51 | 124 | 0.0 | 0.0 | 0.00 | 0.00 | 0.00 | 36 | |
| 20260506113624 | 51 | 109 | 0.0 | 0.0 | 0.00 | 0.00 | 0.00 | 36 | |
| 20260506113408 | 51 | 109 | 0.0 | 0.0 | 0.00 | 0.00 | 0.00 | 36 | |
| 20260506113258 | 51 | 119 | 0.0 | 1.7 | 0.00 | 0.00 | 0.00 | 36 | |
| 20260506112908 | 51 | 119 | 0.0 | 1.7 | 0.00 | 0.00 | 0.00 | 36 | |
| 20260506112737 | 51 | 109 | 0.0 | 1.7 | 0.00 | 0.00 | 0.00 | 36 | |
| 20260506112408 | 51 | 109 | 0.0 | 1.7 | 0.00 | 0.00 | 0.00 | 36 | |
| 20260506112201 | 52 | 126 | 0.0 | 0.0 | 0.00 | 0.00 | 0.00 | 37 | |
| 20260506111908 | 52 | 126 | 0.0 | 0.0 | 0.00 | 0.00 | 0.00 | 37 | |
| 20260506111524 | 52 | 198 | 0.0 | 0.9 | 0.00 | 0.00 | 0.00 | 37 | |
| 20260506111408 | 52 | 198 | 0.0 | 0.9 | 0.00 | 0.00 | 0.00 | 37 | |
| 20260506111008 | 52 | 196 | 0.0 | 1.7 | 0.00 | 0.00 | 0.00 | 37 | |
| 20260506110908 | 52 | 196 | 0.0 | 1.7 | 0.00 | 0.00 | 0.00 | 37 | |
| 20260506110521 | 52 | 192 | 0.0 | 1.7 | 0.00 | 0.00 | 0.00 | 37 | |
| 20260506110018 | 52 | 196 | 0.0 | 1.7 | 0.00 | 0.00 | 0.00 | 37 | |
| 20260506105908 | 52 | 196 | 0.0 | 1.7 | 0.00 | 0.00 | 0.00 | 37 | |
| 20260506105532 | 53 | 204 | 0.0 | 1.7 | 0.00 | 0.00 | 0.00 | 37 | |
| 20260506105409 | 53 | 204 | 0.0 | 1.7 | 0.00 | 0.00 | 0.00 | 37 | |
| 20260506105010 | 53 | 189 | 0.0 | 2.6 | 0.00 | 0.00 | 0.00 | 37 | |
| 20260506104908 | 53 | 189 | 0.0 | 2.6 | 0.00 | 0.00 | 0.00 | 37 | |
| 20260506104033 | 53 | 194 | 0.0 | 1.7 | 0.00 | 0.00 | 0.00 | 37 | |
| 20260506103909 | 53 | 194 | 0.0 | 1.7 | 0.00 | 0.00 | 0.00 | 37 | |
| 20260506103500 | 53 | 199 | 0.0 | 3.5 | 0.00 | 0.00 | 0.00 | 37 | |
| 20260506103408 | 53 | 199 | 0.0 | 3.5 | 0.00 | 0.00 | 0.00 | 37 | |
| 20260506103041 | 53 | 200 | 0.9 | 3.5 | 0.00 | 0.00 | 0.00 | 37 | |
| 20260506102908 | 53 | 200 | 0.9 | 3.5 | 0.00 | 0.00 | 0.00 | 37 | |
| 20260506102509 | 53 | 202 | 0.0 | 2.6 | 0.00 | 0.00 | 0.00 | 37 | |
| 20260506102408 | 53 | 202 | 0.0 | 2.6 | 0.00 | 0.00 | 0.00 | 37 | |
| 20260506102006 | 53 | 193 | 0.0 | 0.9 | 0.00 | 0.00 | 0.00 | 37 | |
| 20260506101909 | 53 | 193 | 0.0 | 0.9 | 0.00 | 0.00 | 0.00 | 37 | |
| 20260506101607 | 53 | 214 | 0.0 | 0.9 | 0.00 | 0.00 | 0.00 | 37 | |
| 20260506101408 | 53 | 214 | 0.0 | 0.9 | 0.00 | 0.00 | 0.00 | 37 | |
| 20260506101041 | 53 | 181 | 0.0 | 0.0 | 0.00 | 0.00 | 0.00 | 37 | |
| 20260506100908 | 53 | 181 | 0.0 | 0.0 | 0.00 | 0.00 | 0.00 | 37 | |
| 20260506100517 | 53 | 188 | 0.0 | 0.0 | 0.00 | 0.00 | 0.00 | 37 | |
| 20260506100408 | 53 | 188 | 0.0 | 0.0 | 0.00 | 0.00 | 0.00 | 37 | |
| 20260506100019 | 53 | 202 | 0.0 | 0.0 | 0.00 | 0.00 | 0.00 | 37 | |
| 20260506095908 | 53 | 202 | 0.0 | 0.0 | 0.00 | 0.00 | 0.00 | 37 | |
| 20260506095616 | 53 | 186 | 0.0 | 0.9 | 0.00 | 0.00 | 0.00 | 37 | |
| 20260506095408 | 53 | 186 | 0.0 | 0.9 | 0.00 | 0.00 | 0.00 | 37 | |
| 20260506095040 | 53 | 195 | 0.0 | 0.9 | 0.00 | 0.00 | 0.00 | 37 | |
| 20260506094908 | 53 | 195 | 0.0 | 0.9 | 0.00 | 0.00 | 0.00 | 37 | |
| 20260506094523 | 53 | 196 | 0.0 | 0.0 | 0.00 | 0.00 | 0.00 | 37 | |
| 20260506094408 | 53 | 196 | 0.0 | 0.0 | 0.00 | 0.00 | 0.00 | 37 | |
| 20260506094054 | 53 | 184 | 0.0 | 0.0 | 0.00 | 0.00 | 0.00 | 37 | |
| 20260506093908 | 53 | 184 | 0.0 | 0.0 | 0.00 | 0.00 | 0.00 | 37 | |
| 20260506093545 | 53 | 177 | 0.0 | 0.0 | 0.00 | 0.00 | 0.00 | 37 | |
| 20260506093408 | 53 | 177 | 0.0 | 0.0 | 0.00 | 0.00 | 0.00 | 37 | |
| 20260506093051 | 53 | 181 | 0.0 | 0.0 | 0.00 | 0.00 | 0.00 | 37 | |
| 20260506092908 | 53 | 181 | 0.0 | 0.0 | 0.00 | 0.00 | 0.00 | 37 | |
| 20260506092533 | 54 | 190 | 0.0 | 1.7 | 0.00 | 0.00 | 0.00 | 37 | |
| 20260506092408 | 54 | 190 | 0.0 | 1.7 | 0.00 | 0.00 | 0.00 | 37 | |
| 20260506092125 | 54 | 192 | 0.0 | 3.5 | 0.00 | 0.00 | 0.00 | 37 | |
| 20260506091908 | 54 | 192 | 0.0 | 3.5 | 0.00 | 0.00 | 0.00 | 37 | |
| 20260506091752 | 54 | 200 | 0.0 | 3.5 | 0.00 | 0.00 | 0.00 | 37 | |
| 20260506091408 | 54 | 200 | 0.0 | 3.5 | 0.00 | 0.00 | 0.00 | 37 | |
| 20260506091133 | 54 | 205 | 0.0 | 3.5 | 0.00 | 0.00 | 0.00 | 37 | |
| 20260506090908 | 54 | 205 | 0.0 | 3.5 | 0.00 | 0.00 | 0.00 | 37 | |
| 20260506090642 | 54 | 198 | 0.0 | 3.5 | 0.00 | 0.00 | 0.00 | 37 | |
| 20260506090408 | 54 | 198 | 0.0 | 3.5 | 0.00 | 0.00 | 0.00 | 37 | |
| 20260506090037 | 54 | 201 | 0.0 | 2.6 | 0.00 | 0.00 | 0.00 | 37 | |
| 20260506085909 | 54 | 201 | 0.0 | 2.6 | 0.00 | 0.00 | 0.00 | 37 | |
| 20260506085517 | 55 | 202 | 0.0 | 2.6 | 0.00 | 0.00 | 0.00 | 37 | |
| 20260506085408 | 55 | 202 | 0.0 | 2.6 | 0.00 | 0.00 | 0.00 | 37 | |
| 20260506085122 | 55 | 202 | 0.0 | 2.6 | 0.00 | 0.00 | 0.00 | 37 | |
| 20260506084909 | 55 | 202 | 0.0 | 2.6 | 0.00 | 0.00 | 0.00 | 37 | |
| 20260506084640 | 55 | 202 | 0.0 | 2.6 | 0.00 | 0.00 | 0.00 | 37 | |
| 20260506084410 | 55 | 202 | 0.0 | 2.6 | 0.00 | 0.00 | 0.00 | 37 | |
| 20260506084116 | 55 | 203 | 0.0 | 2.6 | 0.00 | 0.00 | 0.00 | 37 | |
| 20260506083908 | 55 | 203 | 0.0 | 2.6 | 0.00 | 0.00 | 0.00 | 37 | |
| 20260506083656 | 55 | 202 | 0.0 | 2.6 | 0.00 | 0.00 | 0.00 | 37 | |
| 20260506083409 | 55 | 202 | 0.0 | 2.6 | 0.00 | 0.00 | 0.00 | 37 | |
| 20260506083128 | 55 | 209 | 0.9 | 2.6 | 0.00 | 0.00 | 0.00 | 37 | |
| 20260506082908 | 55 | 209 | 0.9 | 2.6 | 0.00 | 0.00 | 0.00 | 37 | |
| 20260506082759 | 55 | 205 | 0.0 | 1.7 | 0.00 | 0.00 | 0.00 | 37 | |
| 20260506082408 | 55 | 205 | 0.0 | 1.7 | 0.00 | 0.00 | 0.00 | 37 | |
| 20260506082327 | 55 | 207 | 0.0 | 2.6 | 0.00 | 0.00 | 0.00 | 37 | |
| 20260506081911 | 55 | 197 | 0.0 | 2.6 | 0.00 | 0.00 | 0.00 | 37 | |
| 20260506081908 | 55 | 207 | 0.0 | 2.6 | 0.00 | 0.00 | 0.00 | 37 | |
| 20260506081408 | 55 | 197 | 0.0 | 2.6 | 0.00 | 0.00 | 0.00 | 37 | |
| 20260506081258 | 55 | 202 | 0.0 | 2.6 | 0.00 | 0.00 | 0.00 | 37 | |
| 20260506080908 | 55 | 202 | 0.0 | 2.6 | 0.00 | 0.00 | 0.00 | 37 | |
| 20260506080905 | 55 | 204 | 0.0 | 2.6 | 0.00 | 0.00 | 0.00 | 37 | |
| 20260506080816 | 55 | 204 | 0.0 | 2.6 | 0.00 | 0.00 | 0.00 | 37 | |
| 20260506080408 | 55 | 204 | 0.0 | 2.6 | 0.00 | 0.00 | 0.00 | 37 | |
| 20260506080240 | 55 | 214 | 0.0 | 1.7 | 0.00 | 0.00 | 0.00 | 37 | |
| 20260506073408 | 55 | 224 | 0.0 | 0.0 | 0.00 | 0.00 | 0.00 | 37 | |
| 20260506073139 | 56 | 224 | 0.0 | 0.0 | 0.00 | 0.00 | 0.00 | 36 | |
| 20260506072908 | 56 | 224 | 0.0 | 0.0 | 0.00 | 0.00 | 0.00 | 36 | |
| 20260506072815 | 56 | 223 | 0.0 | 0.0 | 0.00 | 0.00 | 0.00 | 37 | |
| 20260506072408 | 56 | 223 | 0.0 | 0.0 | 0.00 | 0.00 | 0.00 | 37 | |
| 20260506072145 | 56 | 224 | 0.0 | 0.0 | 0.00 | 0.00 | 0.00 | 37 | |
| 20260506071908 | 56 | 224 | 0.0 | 0.0 | 0.00 | 0.00 | 0.00 | 37 | |
| 20260506071647 | 56 | 219 | 0.0 | 0.0 | 0.00 | 0.00 | 0.00 | 37 | |
| 20260506071408 | 56 | 219 | 0.0 | 0.0 | 0.00 | 0.00 | 0.00 | 37 | |
| 20260506071240 | 56 | 212 | 0.0 | 0.0 | 0.00 | 0.00 | 0.00 | 37 | |
| 20260506070908 | 56 | 212 | 0.0 | 0.0 | 0.00 | 0.00 | 0.00 | 37 | |
| 20260506070642 | 56 | 220 | 0.0 | 0.0 | 0.00 | 0.00 | 0.00 | 37 | |
| 20260506070408 | 56 | 220 | 0.0 | 0.0 | 0.00 | 0.00 | 0.00 | 37 | |
| 20260506070114 | 57 | 226 | 0.0 | 0.0 | 0.00 | 0.00 | 0.00 | 37 | |
| 20260506062408 | 58 | 236 | 0.0 | 0.9 | 0.00 | 0.00 | 0.00 | 37 | |
| 20260506062259 | 59 | 248 | 0.0 | 5.2 | 0.00 | 0.00 | 0.00 | 37 | |
| 20260506061908 | 59 | 248 | 0.0 | 5.2 | 0.00 | 0.00 | 0.00 | 37 | |
| 20260506061656 | 59 | 251 | 0.0 | 5.2 | 0.00 | 0.00 | 0.00 | 37 | |
| 20260506061408 | 59 | 251 | 0.0 | 5.2 | 0.00 | 0.00 | 0.00 | 37 | |
| 20260506061400 | 59 | 256 | 0.9 | 5.2 | 0.00 | 0.00 | 0.00 | 36 | |
| 20260506060908 | 59 | 256 | 0.9 | 5.2 | 0.00 | 0.00 | 0.00 | 36 | |
| 20260506060607 | 59 | 253 | 0.0 | 6.1 | 0.00 | 0.00 | 0.00 | 36 | |
| 20260506060408 | 59 | 253 | 0.0 | 6.1 | 0.00 | 0.00 | 0.00 | 36 | |
| 20260506051408 | 59 | 242 | 0.0 | 0.0 | 0.00 | 0.00 | 0.00 | 36 | |
| 20260506051257 | 60 | 229 | 0.0 | 0.0 | 0.00 | 0.00 | 0.00 | 36 | |
| 20260506050908 | 60 | 229 | 0.0 | 0.0 | 0.00 | 0.00 | 0.00 | 36 | |
| 20260506050758 | 60 | 245 | 0.0 | 0.0 | 0.00 | 0.00 | 0.00 | 37 | |
| 20260506050408 | 60 | 245 | 0.0 | 0.0 | 0.00 | 0.00 | 0.00 | 37 | |
| 20260506050246 | 60 | 250 | 0.0 | 0.0 | 0.00 | 0.00 | 0.00 | 36 | |
| 20260506044908 | 61 | 269 | 0.0 | 0.0 | 0.00 | 0.00 | 0.00 | 36 | |
| 20260506044525 | 61 | 265 | 0.0 | 4.3 | 0.00 | 0.00 | 0.00 | 36 | |
| 20260506044410 | 61 | 265 | 0.0 | 4.3 | 0.00 | 0.00 | 0.00 | 36 | |
| 20260506044128 | 61 | 264 | 0.0 | 6.1 | 0.00 | 0.00 | 0.00 | 36 | |
| 20260506043908 | 61 | 264 | 0.0 | 6.1 | 0.00 | 0.00 | 0.00 | 36 | |
| 20260506043648 | 62 | 265 | 0.9 | 6.1 | 0.00 | 0.00 | 0.00 | 36 | |
| 20260506043408 | 62 | 265 | 0.9 | 6.1 | 0.00 | 0.00 | 0.00 | 36 | |
| 20260506043131 | 62 | 262 | 1.7 | 7.0 | 0.00 | 0.00 | 0.00 | 36 | |
| 20260506042908 | 62 | 262 | 1.7 | 7.0 | 0.00 | 0.00 | 0.00 | 36 | |
| 20260506042716 | 62 | 255 | 2.6 | 7.8 | 0.00 | 0.00 | 0.00 | 36 | |
| 20260506042408 | 62 | 255 | 2.6 | 7.8 | 0.00 | 0.00 | 0.00 | 36 | |
| 20260506042155 | 62 | 255 | 2.6 | 7.8 | 0.00 | 0.00 | 0.00 | 36 | |
| 20260506041908 | 62 | 255 | 2.6 | 7.8 | 0.00 | 0.00 | 0.00 | 36 | |
| 20260506041720 | 62 | 253 | 2.6 | 7.0 | 0.00 | 0.00 | 0.00 | 36 | |
| 20260506041408 | 62 | 253 | 2.6 | 7.0 | 0.00 | 0.00 | 0.00 | 36 | |
| 20260506041044 | 62 | 247 | 0.9 | 5.2 | 0.00 | 0.00 | 0.00 | 36 | |
| 20260506040910 | 62 | 247 | 0.9 | 5.2 | 0.00 | 0.00 | 0.00 | 36 | |
| 20260506040634 | 62 | 253 | 0.9 | 5.2 | 0.00 | 0.00 | 0.00 | 36 | |
| 20260506040408 | 62 | 253 | 0.9 | 5.2 | 0.00 | 0.00 | 0.00 | 36 | |
| 20260506040223 | 62 | 252 | 0.0 | 5.2 | 0.00 | 0.00 | 0.00 | 36 | |
| 20260506035908 | 62 | 252 | 0.0 | 5.2 | 0.00 | 0.00 | 0.00 | 36 | |
| 20260506035733 | 62 | 239 | 0.0 | 0.0 | 0.00 | 0.00 | 0.00 | 36 | |
| 20260506035408 | 62 | 239 | 0.0 | 0.0 | 0.00 | 0.00 | 0.00 | 36 | |
| 20260506035231 | 63 | 234 | 0.0 | 1.7 | 0.00 | 0.00 | 0.00 | 36 | |
| 20260506034908 | 63 | 234 | 0.0 | 1.7 | 0.00 | 0.00 | 0.00 | 36 | |
| 20260506034655 | 63 | 238 | 0.0 | 1.7 | 0.00 | 0.00 | 0.00 | 36 | |
| 20260506034408 | 63 | 238 | 0.0 | 1.7 | 0.00 | 0.00 | 0.00 | 36 | |
| 20260506034201 | 63 | 261 | 0.0 | 0.9 | 0.00 | 0.00 | 0.00 | 36 | |
| 20260506033908 | 63 | 261 | 0.0 | 0.9 | 0.00 | 0.00 | 0.00 | 36 | |
| 20260506033556 | 63 | 262 | 0.0 | 7.0 | 0.00 | 0.00 | 0.00 | 36 | |
| 20260506033409 | 63 | 262 | 0.0 | 7.0 | 0.00 | 0.00 | 0.00 | 36 | |
| 20260506033216 | 64 | 257 | 1.7 | 7.0 | 0.00 | 0.00 | 0.00 | 36 | |
| 20260506032908 | 64 | 257 | 1.7 | 7.0 | 0.00 | 0.00 | 0.00 | 36 | |
| 20260506032733 | 64 | 260 | 1.7 | 7.8 | 0.00 | 0.00 | 0.00 | 36 | |
| 20260506032408 | 64 | 260 | 1.7 | 7.8 | 0.00 | 0.00 | 0.00 | 36 | |
| 20260506032110 | 64 | 259 | 2.6 | 7.8 | 0.00 | 0.00 | 0.00 | 36 | |
| 20260506031908 | 64 | 259 | 2.6 | 7.8 | 0.00 | 0.00 | 0.00 | 36 | |
| 20260506031732 | 64 | 265 | 3.5 | 7.8 | 0.00 | 0.00 | 0.00 | 36 | |
| 20260506031408 | 64 | 265 | 3.5 | 7.8 | 0.00 | 0.00 | 0.00 | 36 | |
| 20260506031150 | 64 | 264 | 3.5 | 8.7 | 0.00 | 0.00 | 0.00 | 36 | |
| 20260506030908 | 64 | 264 | 3.5 | 8.7 | 0.00 | 0.00 | 0.00 | 36 | |
| 20260506030638 | 64 | 263 | 5.2 | 8.7 | 0.00 | 0.00 | 0.00 | 36 | |
| 20260506030408 | 64 | 263 | 5.2 | 8.7 | 0.00 | 0.00 | 0.00 | 36 | |
| 20260506030205 | 64 | 262 | 5.2 | 8.7 | 0.00 | 0.00 | 0.00 | 36 | |
| 20260506025733 | 64 | 258 | 4.3 | 10.4 | 0.00 | 0.00 | 0.00 | 36 | |
| 20260506025408 | 64 | 258 | 4.3 | 10.4 | 0.00 | 0.00 | 0.00 | 36 | |
| 20260506025209 | 64 | 256 | 7.0 | 10.4 | 0.00 | 0.00 | 0.00 | 36 | |
| 20260506024908 | 64 | 256 | 7.0 | 10.4 | 0.00 | 0.00 | 0.00 | 36 | |
| 20260506024655 | 64 | 266 | 5.2 | 8.7 | 0.00 | 0.00 | 0.00 | 36 | |
| 20260506024408 | 64 | 266 | 5.2 | 8.7 | 0.00 | 0.00 | 0.00 | 36 | |
| 20260506024103 | 65 | 263 | 5.2 | 10.4 | 0.00 | 0.00 | 0.00 | 36 | |
| 20260506023908 | 65 | 263 | 5.2 | 10.4 | 0.00 | 0.00 | 0.00 | 36 | |
| 20260506023638 | 65 | 263 | 7.0 | 12.2 | 0.00 | 0.00 | 0.00 | 36 | |
| 20260506023408 | 65 | 263 | 7.0 | 12.2 | 0.00 | 0.00 | 0.00 | 36 | |
| 20260506023202 | 65 | 266 | 6.1 | 12.2 | 0.00 | 0.00 | 0.00 | 36 | |
| 20260506022908 | 65 | 266 | 6.1 | 12.2 | 0.00 | 0.00 | 0.00 | 36 | |
| 20260506022649 | 65 | 262 | 6.1 | 11.3 | 0.00 | 0.00 | 0.00 | 36 | |
| 20260506022408 | 65 | 262 | 6.1 | 11.3 | 0.00 | 0.00 | 0.00 | 36 | |
| 20260506022145 | 65 | 275 | 7.0 | 11.3 | 0.00 | 0.00 | 0.00 | 36 | |
| 20260506021908 | 65 | 275 | 7.0 | 11.3 | 0.00 | 0.00 | 0.00 | 36 | |
| 20260506021644 | 65 | 276 | 4.3 | 11.3 | 0.00 | 0.00 | 0.00 | 36 | |
| 20260506021408 | 65 | 276 | 4.3 | 11.3 | 0.00 | 0.00 | 0.00 | 36 | |
| 20260506021143 | 66 | 274 | 4.3 | 9.6 | 0.00 | 0.00 | 0.00 | 36 | |
| 20260506020908 | 66 | 274 | 4.3 | 9.6 | 0.00 | 0.00 | 0.00 | 36 | |
| 20260506020608 | 67 | 271 | 5.2 | 11.3 | 0.00 | 0.00 | 0.00 | 36 | |
| 20260506020408 | 67 | 271 | 5.2 | 11.3 | 0.00 | 0.00 | 0.00 | 36 | |
| 20260506020116 | 68 | 267 | 6.1 | 12.2 | 0.00 | 0.00 | 0.00 | 36 | |
| 20260506015908 | 68 | 267 | 6.1 | 12.2 | 0.00 | 0.00 | 0.00 | 36 | |
| 20260506015757 | 69 | 266 | 7.0 | 13.0 | 0.00 | 0.00 | 0.00 | 36 | |
| 20260506015408 | 69 | 266 | 7.0 | 13.0 | 0.00 | 0.00 | 0.00 | 36 | |
| 20260506015257 | 70 | 274 | 7.0 | 13.0 | 0.00 | 0.00 | 0.00 | 36 | |
| 20260506014908 | 70 | 274 | 7.0 | 13.0 | 0.00 | 0.00 | 0.00 | 36 | |
| 20260506014614 | 71 | 268 | 6.1 | 16.5 | 0.00 | 0.00 | 0.00 | 36 | |
| 20260506014408 | 71 | 268 | 6.1 | 16.5 | 0.00 | 0.00 | 0.00 | 36 | |
| 20260506014220 | 72 | 265 | 8.7 | 16.5 | 0.00 | 0.00 | 0.00 | 36 | |
| 20260506013908 | 72 | 265 | 8.7 | 16.5 | 0.00 | 0.00 | 0.00 | 36 | |
| 20260506013702 | 72 | 250 | 7.0 | 13.0 | 0.00 | 0.00 | 0.00 | 36 | |
| 20260506013408 | 72 | 250 | 7.0 | 13.0 | 0.00 | 0.00 | 0.00 | 36 | |
| 20260506013207 | 72 | 262 | 7.8 | 13.0 | 0.00 | 0.00 | 0.00 | 36 | |
| 20260506012908 | 72 | 262 | 7.8 | 13.0 | 0.00 | 0.00 | 0.00 | 36 | |
| 20260506012748 | 73 | 257 | 7.0 | 13.9 | 0.00 | 0.00 | 0.00 | 36 | |
| 20260506012408 | 73 | 257 | 7.0 | 13.9 | 0.00 | 0.00 | 0.00 | 36 | |
| 20260506012157 | 73 | 258 | 8.7 | 13.9 | 0.00 | 0.00 | 0.00 | 36 | |
| 20260506011908 | 73 | 258 | 8.7 | 13.9 | 0.00 | 0.00 | 0.00 | 36 | |
| 20260506011654 | 72 | 269 | 8.7 | 13.9 | 0.00 | 0.00 | 0.00 | 36 | |
| 20260506011408 | 72 | 269 | 8.7 | 13.9 | 0.00 | 0.00 | 0.00 | 36 | |
| 20260506011212 | 72 | 252 | 8.7 | 14.8 | 0.00 | 0.00 | 0.00 | 36 | |
| 20260506010908 | 72 | 252 | 8.7 | 14.8 | 0.00 | 0.00 | 0.00 | 36 | |
| 20260506010630 | 73 | 254 | 9.6 | 16.5 | 0.00 | 0.00 | 0.00 | 36 | |
| 20260506010408 | 73 | 254 | 9.6 | 16.5 | 0.00 | 0.00 | 0.00 | 36 | |
| 20260506010210 | 74 | 246 | 10.4 | 16.5 | 0.00 | 0.00 | 0.00 | 36 | |
| 20260506005908 | 74 | 246 | 10.4 | 16.5 | 0.00 | 0.00 | 0.00 | 36 | |
| 20260506005640 | 74 | 257 | 9.6 | 14.8 | 0.00 | 0.00 | 0.00 | 36 | |
| 20260506005408 | 74 | 257 | 9.6 | 14.8 | 0.00 | 0.00 | 0.00 | 36 | |
| 20260506005139 | 73 | 265 | 7.0 | 13.0 | 0.00 | 0.00 | 0.00 | 36 | |
| 20260506004908 | 73 | 265 | 7.0 | 13.0 | 0.00 | 0.00 | 0.00 | 36 | |
| 20260506004555 | 73 | 246 | 7.8 | 13.0 | 0.00 | 0.00 | 0.00 | 36 | |
| 20260506004408 | 73 | 246 | 7.8 | 13.0 | 0.00 | 0.00 | 0.00 | 36 | |
| 20260506004124 | 74 | 261 | 7.8 | 14.8 | 0.00 | 0.00 | 0.00 | 37 | |
| 20260506003908 | 74 | 261 | 7.8 | 14.8 | 0.00 | 0.00 | 0.00 | 37 | |
| 20260506003601 | 74 | 253 | 8.7 | 16.5 | 0.00 | 0.00 | 0.00 | 36 | |
| 20260506003408 | 74 | 253 | 8.7 | 16.5 | 0.00 | 0.00 | 0.00 | 36 | |
| 20260506003137 | 74 | 256 | 9.6 | 16.5 | 0.00 | 0.00 | 0.00 | 36 | |
| 20260506002908 | 74 | 256 | 9.6 | 16.5 | 0.00 | 0.00 | 0.00 | 36 | |
| 20260506002640 | 73 | 275 | 5.2 | 11.3 | 0.00 | 0.00 | 0.00 | 36 | |
| 20260506002409 | 73 | 275 | 5.2 | 11.3 | 0.00 | 0.00 | 0.00 | 36 | |
| 20260506002133 | 72 | 260 | 7.8 | 12.2 | 0.00 | 0.00 | 0.00 | 36 | |
| 20260506001908 | 72 | 260 | 7.8 | 12.2 | 0.00 | 0.00 | 0.00 | 36 | |
| 20260506001719 | 73 | 258 | 7.0 | 13.9 | 0.00 | 0.00 | 0.00 | 36 | |
| 20260506001408 | 73 | 258 | 7.0 | 13.9 | 0.00 | 0.00 | 0.00 | 36 | |
| 20260506001220 | 74 | 242 | 8.7 | 13.9 | 0.00 | 0.00 | 0.00 | 36 | |
| 20260506000908 | 74 | 242 | 8.7 | 13.9 | 0.00 | 0.00 | 0.00 | 36 | |
| 20260506000602 | 76 | 242 | 8.7 | 13.9 | 0.00 | 0.00 | 0.00 | 36 | |
| 20260506000408 | 76 | 242 | 8.7 | 13.9 | 0.00 | 0.00 | 0.00 | 36 | |
| 20260506000149 | 77 | 235 | 8.7 | 13.9 | 0.00 | 0.00 | 0.00 | 37 | |
| 20260505235908 | 77 | 235 | 8.7 | 13.9 | 0.00 | 0.00 | 0.00 | 37 | |
| 20260505235705 | 76 | 264 | 7.8 | 13.9 | 0.00 | 0.00 | 0.00 | 37 | |
| 20260505235408 | 76 | 264 | 7.8 | 13.9 | 0.00 | 0.00 | 0.00 | 37 | |
| 20260505235129 | 76 | 243 | 7.8 | 14.8 | 0.00 | 0.00 | 0.00 | 36 | |
| 20260505234908 | 76 | 243 | 7.8 | 14.8 | 0.00 | 0.00 | 0.00 | 36 | |
| 20260505234655 | 77 | 231 | 9.6 | 14.8 | 0.00 | 0.00 | 0.00 | 36 | |
| 20260505234408 | 77 | 231 | 9.6 | 14.8 | 0.00 | 0.00 | 0.00 | 36 | |
| 20260505234217 | 76 | 241 | 8.7 | 14.8 | 0.00 | 0.00 | 0.00 | 36 | |
| 20260505233908 | 76 | 241 | 8.7 | 14.8 | 0.00 | 0.00 | 0.00 | 36 | |
| 20260505233630 | 76 | 266 | 8.7 | 18.2 | 0.00 | 0.00 | 0.00 | 36 | |
| 20260505233408 | 76 | 266 | 8.7 | 18.2 | 0.00 | 0.00 | 0.00 | 36 | |
| 20260505233220 | 77 | 263 | 10.4 | 18.2 | 0.00 | 0.00 | 0.00 | 36 | |
| 20260505232908 | 77 | 263 | 10.4 | 18.2 | 0.00 | 0.00 | 0.00 | 36 | |
| 20260505232724 | 78 | 252 | 7.8 | 14.8 | 0.00 | 0.00 | 0.00 | 36 | |
| 20260505232409 | 78 | 252 | 7.8 | 14.8 | 0.00 | 0.00 | 0.00 | 36 | |
| 20260505232245 | 77 | 240 | 9.6 | 14.8 | 0.00 | 0.00 | 0.00 | 36 | |
| 20260505231908 | 77 | 240 | 9.6 | 14.8 | 0.00 | 0.00 | 0.00 | 36 | |
| 20260505231708 | 76 | 237 | 8.7 | 14.8 | 0.00 | 0.00 | 0.00 | 36 | |
| 20260505231408 | 76 | 237 | 8.7 | 14.8 | 0.00 | 0.00 | 0.00 | 36 | |
| 20260505231131 | 75 | 223 | 9.6 | 15.6 | 0.00 | 0.00 | 0.00 | 36 | |
| 20260505230908 | 75 | 223 | 9.6 | 15.6 | 0.00 | 0.00 | 0.00 | 36 | |
| 20260505230559 | 76 | 226 | 10.4 | 16.5 | 0.00 | 0.00 | 0.00 | 36 | |
| 20260505230408 | 76 | 226 | 10.4 | 16.5 | 0.00 | 0.00 | 0.00 | 36 | |
| 20260505230226 | 76 | 233 | 10.4 | 16.5 | 0.00 | 0.00 | 0.00 | 36 | |
| 20260505225908 | 76 | 233 | 10.4 | 16.5 | 0.00 | 0.00 | 0.00 | 36 | |
| 20260505225639 | 77 | 235 | 9.6 | 13.9 | 0.00 | 0.00 | 0.00 | 36 | |
| 20260505225408 | 77 | 235 | 9.6 | 13.9 | 0.00 | 0.00 | 0.00 | 36 | |
| 20260505225041 | 78 | 243 | 7.8 | 15.6 | 0.00 | 0.00 | 0.00 | 36 | |
| 20260505224909 | 78 | 243 | 7.8 | 15.6 | 0.00 | 0.00 | 0.00 | 36 | |
| 20260505224634 | 78 | 238 | 9.6 | 15.6 | 0.00 | 0.00 | 0.00 | 36 | |
| 20260505224408 | 78 | 238 | 9.6 | 15.6 | 0.00 | 0.00 | 0.00 | 36 | |
| 20260505224136 | 78 | 264 | 8.7 | 15.6 | 0.00 | 0.00 | 0.00 | 37 | |
| 20260505223908 | 78 | 264 | 8.7 | 15.6 | 0.00 | 0.00 | 0.00 | 37 | |
| 20260505223623 | 78 | 246 | 10.4 | 15.6 | 0.00 | 0.00 | 0.00 | 37 | |
| 20260505223408 | 78 | 246 | 10.4 | 15.6 | 0.00 | 0.00 | 0.00 | 37 | |
| 20260505223137 | 78 | 245 | 9.6 | 17.4 | 0.00 | 0.00 | 0.00 | 37 | |
| 20260505222908 | 78 | 245 | 9.6 | 17.4 | 0.00 | 0.00 | 0.00 | 37 | |
| 20260505222652 | 78 | 250 | 10.4 | 17.4 | 0.00 | 0.00 | 0.00 | 37 | |
| 20260505222408 | 78 | 250 | 10.4 | 17.4 | 0.00 | 0.00 | 0.00 | 37 | |
| 20260505222212 | 78 | 244 | 10.4 | 17.4 | 0.00 | 0.00 | 0.00 | 37 | |
| 20260505221908 | 78 | 244 | 10.4 | 17.4 | 0.00 | 0.00 | 0.00 | 37 | |
| 20260505221655 | 77 | 237 | 10.4 | 17.4 | 0.00 | 0.00 | 0.00 | 37 | |
| 20260505221409 | 77 | 237 | 10.4 | 17.4 | 0.00 | 0.00 | 0.00 | 37 | |
| 20260505221033 | 76 | 247 | 9.6 | 18.2 | 0.00 | 0.00 | 0.00 | 37 | |
| 20260505220908 | 76 | 247 | 9.6 | 18.2 | 0.00 | 0.00 | 0.00 | 37 | |
| 20260505220453 | 77 | 255 | 9.6 | 18.2 | 0.00 | 0.00 | 0.00 | 37 | |
| 20260505220408 | 77 | 255 | 9.6 | 18.2 | 0.00 | 0.00 | 0.00 | 37 | |
| 20260505215910 | 77 | 251 | 10.4 | 18.2 | 0.00 | 0.00 | 0.00 | 37 | |
| 20260505215408 | 75 | 248 | 9.6 | 18.2 | 0.00 | 0.00 | 0.00 | 37 | |
| 20260505214908 | 74 | 261 | 8.7 | 16.5 | 0.00 | 0.00 | 0.00 | 37 | |
| 20260505214409 | 73 | 250 | 8.7 | 18.2 | 0.00 | 0.00 | 0.00 | 37 | |
| 20260505212910 | 73 | 264 | 10.4 | 15.6 | 0.00 | 0.00 | 0.00 | 37 | |
| 20260505212502 | 72 | 265 | 9.6 | 15.6 | 0.00 | 0.00 | 0.00 | 38 | |
| 20260505212413 | 72 | 265 | 9.6 | 15.6 | 0.00 | 0.00 | 0.00 | 38 | |
| 20260505211956 | 72 | 248 | 7.8 | 13.9 | 0.00 | 0.00 | 0.00 | 38 | |
| 20260505210911 | 73 | 228 | 9.6 | 13.9 | 0.00 | 0.00 | 0.00 | 38 | |
| 20260505205409 | 73 | 223 | 8.7 | 13.0 | 0.00 | 0.00 | 0.00 | 38 | |
| 20260505204909 | 73 | 218 | 8.7 | 15.6 | 0.00 | 0.00 | 0.00 | 38 | |
| 20260505204502 | 73 | 225 | 9.6 | 15.6 | 0.00 | 0.00 | 0.00 | 38 | |
| 20260505204409 | 73 | 225 | 9.6 | 15.6 | 0.00 | 0.00 | 0.00 | 38 | |
| 20260505203915 | 74 | 226 | 7.8 | 12.2 | 0.00 | 0.00 | 0.00 | 38 | |
| 20260505202909 | 74 | 250 | 7.8 | 13.9 | 0.00 | 0.00 | 0.00 | 38 | |
| 20260505201643 | 74 | 250 | 4.3 | 8.7 | 0.00 | 0.00 | 0.00 | 39 | |
| 20260505201408 | 74 | 250 | 4.3 | 8.7 | 0.00 | 0.00 | 0.00 | 39 | |
| 20260505201051 | 74 | 307 | 2.6 | 7.0 | 0.00 | 0.00 | 0.00 | 40 | |
| 20260505200908 | 74 | 307 | 2.6 | 7.0 | 0.00 | 0.00 | 0.00 | 40 | |
| 20260505200634 | 74 | 280 | 4.3 | 7.8 | 0.00 | 0.00 | 0.00 | 40 | |
| 20260505200409 | 74 | 280 | 4.3 | 7.8 | 0.00 | 0.00 | 0.00 | 40 | |
| 20260505200139 | 74 | 303 | 3.5 | 7.8 | 0.00 | 0.00 | 0.00 | 40 | |
| 20260505195908 | 74 | 303 | 3.5 | 7.8 | 0.00 | 0.00 | 0.00 | 40 | |
| 20260505195637 | 75 | 348 | 2.6 | 7.8 | 0.00 | 0.00 | 0.00 | 42 | |
| 20260505195408 | 75 | 348 | 2.6 | 7.8 | 0.00 | 0.00 | 0.00 | 42 | |
| 20260505195322 | 76 | 261 | 3.5 | 7.8 | 0.00 | 0.00 | 0.00 | 40 | |
| 20260505194908 | 76 | 261 | 3.5 | 7.8 | 0.00 | 0.00 | 0.00 | 40 | |
| 20260505194548 | 76 | 320 | 2.6 | 7.0 | 0.00 | 0.00 | 0.00 | 41 | |
| 20260505194408 | 76 | 320 | 2.6 | 7.0 | 0.00 | 0.00 | 0.00 | 41 | |
| 20260505194220 | 74 | 313 | 2.6 | 7.0 | 0.00 | 0.00 | 0.00 | 41 | |
| 20260505193908 | 74 | 313 | 2.6 | 7.0 | 0.00 | 0.00 | 0.00 | 41 | |
| 20260505193627 | 74 | 312 | 2.6 | 5.2 | 0.00 | 0.00 | 0.00 | 42 | |
| 20260505193408 | 74 | 312 | 2.6 | 5.2 | 0.00 | 0.00 | 0.00 | 42 | |
| 20260505193223 | 74 | 314 | 2.6 | 5.2 | 0.00 | 0.00 | 0.00 | 40 | |
| 20260505192908 | 74 | 314 | 2.6 | 5.2 | 0.00 | 0.00 | 0.00 | 40 | |
| 20260505192721 | 75 | 324 | 2.6 | 7.8 | 0.00 | 0.00 | 0.00 | 39 | |
| 20260505192640 | 75 | 324 | 2.6 | 7.8 | 0.00 | 0.00 | 0.00 | 39 | |
| 20260505192408 | 75 | 324 | 2.6 | 7.8 | 0.00 | 0.00 | 0.00 | 39 | |
| 20260505192316 | 75 | 313 | 3.5 | 8.7 | 0.00 | 0.00 | 0.00 | 40 | |
| 20260505191908 | 75 | 313 | 3.5 | 8.7 | 0.00 | 0.00 | 0.00 | 40 | |
| 20260505191721 | 74 | 315 | 2.6 | 8.7 | 0.00 | 0.00 | 0.00 | 40 | |
| 20260505191408 | 74 | 315 | 2.6 | 8.7 | 0.00 | 0.00 | 0.00 | 40 | |
| 20260505191244 | 74 | 316 | 3.5 | 7.8 | 0.00 | 0.00 | 0.00 | 40 | |
| 20260505190909 | 74 | 316 | 3.5 | 7.8 | 0.00 | 0.00 | 0.00 | 40 | |
| 20260505190720 | 74 | 303 | 3.5 | 8.7 | 0.00 | 0.00 | 0.00 | 39 | |
| 20260505190408 | 74 | 303 | 3.5 | 8.7 | 0.00 | 0.00 | 0.00 | 39 | |
| 20260505185757 | 75 | 317 | 1.7 | 5.2 | 0.00 | 0.00 | 0.00 | 41 | |
| 20260505185408 | 75 | 317 | 1.7 | 5.2 | 0.00 | 0.00 | 0.00 | 41 | |
| 20260505185256 | 76 | 303 | 2.6 | 5.2 | 0.00 | 0.00 | 0.00 | 42 | |
| 20260505184908 | 76 | 303 | 2.6 | 5.2 | 0.00 | 0.00 | 0.00 | 42 | |
| 20260505184658 | 74 | 310 | 2.6 | 5.2 | 0.00 | 0.00 | 0.00 | 42 | |
| 20260505184408 | 74 | 310 | 2.6 | 5.2 | 0.00 | 0.00 | 0.00 | 42 | |
| 20260505183637 | 74 | 317 | 2.6 | 6.1 | 0.00 | 0.00 | 0.00 | 39 | |
| 20260505183408 | 74 | 317 | 2.6 | 6.1 | 0.00 | 0.00 | 0.00 | 39 | |
| 20260505183259 | 74 | 264 | 3.5 | 6.1 | 0.00 | 0.00 | 0.00 | 39 | |
| 20260505182908 | 74 | 264 | 3.5 | 6.1 | 0.00 | 0.00 | 0.00 | 39 | |
| 20260505182812 | 73 | 315 | 2.6 | 6.1 | 0.00 | 0.00 | 0.00 | 38 | |
| 20260505182408 | 73 | 315 | 2.6 | 6.1 | 0.00 | 0.00 | 0.00 | 38 | |
| 20260505182146 | 73 | 317 | 2.6 | 6.1 | 0.00 | 0.00 | 0.00 | 39 | |
| 20260505181908 | 73 | 317 | 2.6 | 6.1 | 0.00 | 0.00 | 0.00 | 39 | |
| 20260505181639 | 74 | 262 | 3.5 | 7.0 | 0.00 | 0.00 | 0.00 | 39 | |
| 20260505181408 | 74 | 262 | 3.5 | 7.0 | 0.00 | 0.00 | 0.00 | 39 | |
| 20260505181258 | 75 | 270 | 2.6 | 7.0 | 0.00 | 0.00 | 0.00 | 39 | |
| 20260505180908 | 75 | 270 | 2.6 | 7.0 | 0.00 | 0.00 | 0.00 | 39 | |
| 20260505180714 | 75 | 318 | 1.7 | 6.1 | 0.00 | 0.00 | 0.00 | 41 | |
| 20260505180408 | 75 | 318 | 1.7 | 6.1 | 0.00 | 0.00 | 0.00 | 41 | |
| 20260505180220 | 74 | 225 | 3.5 | 6.1 | 0.00 | 0.00 | 0.00 | 39 | |
| 20260505175909 | 74 | 225 | 3.5 | 6.1 | 0.00 | 0.00 | 0.00 | 39 | |
| 20260505175744 | 74 | 233 | 2.6 | 4.3 | 0.00 | 0.00 | 0.00 | 43 | |
| 20260505175408 | 74 | 233 | 2.6 | 4.3 | 0.00 | 0.00 | 0.00 | 43 | |
| 20260505175221 | 74 | 85 | 1.7 | 4.3 | 0.00 | 0.00 | 0.00 | 50 | |
| 20260505174908 | 74 | 85 | 1.7 | 4.3 | 0.00 | 0.00 | 0.00 | 50 | |
| 20260505174658 | 72 | 181 | 1.7 | 4.3 | 0.00 | 0.00 | 0.00 | 46 | |
| 20260505174408 | 72 | 181 | 1.7 | 4.3 | 0.00 | 0.00 | 0.00 | 46 | |
| 20260505174202 | 71 | 6 | 0.9 | 5.2 | 0.00 | 0.00 | 0.00 | 49 | |
| 20260505173908 | 71 | 6 | 0.9 | 5.2 | 0.00 | 0.00 | 0.00 | 49 | |
| 20260505173633 | 72 | 302 | 0.9 | 5.2 | 0.00 | 0.00 | 0.00 | 46 | |
| 20260505173408 | 72 | 302 | 0.9 | 5.2 | 0.00 | 0.00 | 0.00 | 46 | |
| 20260505173233 | 72 | 314 | 1.7 | 5.2 | 0.00 | 0.00 | 0.00 | 45 | |
| 20260505172908 | 72 | 314 | 1.7 | 5.2 | 0.00 | 0.00 | 0.00 | 45 | |
| 20260505172653 | 71 | 4 | 0.9 | 3.5 | 0.00 | 0.00 | 0.00 | 47 | |
| 20260505172408 | 71 | 4 | 0.9 | 3.5 | 0.00 | 0.00 | 0.00 | 47 | |
| 20260505172050 | 71 | 1 | 0.9 | 5.2 | 0.00 | 0.00 | 0.00 | 46 | |
| 20260505171908 | 71 | 1 | 0.9 | 5.2 | 0.00 | 0.00 | 0.00 | 46 | |
| 20260505171716 | 72 | 242 | 2.6 | 5.2 | 0.00 | 0.00 | 0.00 | 40 | |
| 20260505171408 | 72 | 242 | 2.6 | 5.2 | 0.00 | 0.00 | 0.00 | 40 | |
| 20260505171238 | 71 | 264 | 2.6 | 4.3 | 0.00 | 0.00 | 0.00 | 41 | |
| 20260505170908 | 71 | 264 | 2.6 | 4.3 | 0.00 | 0.00 | 0.00 | 41 | |
| 20260505170741 | 71 | 307 | 1.7 | 3.5 | 0.00 | 0.00 | 0.00 | 44 | |
| 20260505170408 | 71 | 307 | 1.7 | 3.5 | 0.00 | 0.00 | 0.00 | 44 | |
| 20260505170211 | 70 | 306 | 0.9 | 2.6 | 0.00 | 0.00 | 0.00 | 44 | |
| 20260505165908 | 70 | 306 | 0.9 | 2.6 | 0.00 | 0.00 | 0.00 | 44 | |
| 20260505165631 | 67 | 132 | 0.9 | 2.6 | 0.00 | 0.00 | 0.00 | 44 | |
| 20260505165408 | 67 | 132 | 0.9 | 2.6 | 0.00 | 0.00 | 0.00 | 44 | |
| 20260505165254 | 66 | 224 | 0.9 | 3.5 | 0.00 | 0.00 | 0.00 | 40 | |
| 20260505164908 | 66 | 224 | 0.9 | 3.5 | 0.00 | 0.00 | 0.00 | 40 | |
| 20260505164652 | 64 | 264 | 0.9 | 3.5 | 0.00 | 0.00 | 0.00 | 39 | |
| 20260505164408 | 64 | 264 | 0.9 | 3.5 | 0.00 | 0.00 | 0.00 | 39 | |
| 20260505164222 | 64 | 275 | 0.9 | 4.3 | 0.00 | 0.00 | 0.00 | 39 | |
| 20260505163908 | 64 | 275 | 0.9 | 4.3 | 0.00 | 0.00 | 0.00 | 39 | |
| 20260505163756 | 64 | 264 | 2.6 | 4.3 | 0.00 | 0.00 | 0.00 | 39 | |
| 20260505163408 | 64 | 264 | 2.6 | 4.3 | 0.00 | 0.00 | 0.00 | 39 | |
| 20260505163220 | 64 | 275 | 1.7 | 3.5 | 0.00 | 0.00 | 0.00 | 39 | |
| 20260505162908 | 64 | 275 | 1.7 | 3.5 | 0.00 | 0.00 | 0.00 | 39 | |
| 20260505162714 | 64 | 270 | 1.7 | 3.5 | 0.00 | 0.00 | 0.00 | 39 | |
| 20260505162408 | 64 | 270 | 1.7 | 3.5 | 0.00 | 0.00 | 0.00 | 39 | |
| 20260505162327 | 64 | 281 | 1.7 | 4.3 | 0.00 | 0.00 | 0.00 | 39 | |
| 20260505161908 | 64 | 281 | 1.7 | 4.3 | 0.00 | 0.00 | 0.00 | 39 | |
| 20260505161817 | 64 | 251 | 2.6 | 4.3 | 0.00 | 0.00 | 0.00 | 39 | |
| 20260505161408 | 64 | 251 | 2.6 | 4.3 | 0.00 | 0.00 | 0.00 | 39 | |
| 20260505161258 | 64 | 247 | 2.6 | 3.5 | 0.00 | 0.00 | 0.00 | 39 | |
| 20260505160908 | 64 | 247 | 2.6 | 3.5 | 0.00 | 0.00 | 0.00 | 39 | |
| 20260505160647 | 64 | 266 | 0.9 | 2.6 | 0.00 | 0.00 | 0.00 | 39 | |
| 20260505160408 | 64 | 266 | 0.9 | 2.6 | 0.00 | 0.00 | 0.00 | 39 | |
| 20260505160311 | 64 | 263 | 0.9 | 2.6 | 0.00 | 0.00 | 0.00 | 39 | |
| 20260505153241 | 60 | 255 | 0.0 | 0.0 | 0.00 | 0.00 | 0.00 | 39 | |
| 20260505152908 | 60 | 255 | 0.0 | 0.0 | 0.00 | 0.00 | 0.00 | 39 | |
| 20260505152728 | 60 | 243 | 0.0 | 0.0 | 0.00 | 0.00 | 0.00 | 39 | |
| 20260505152408 | 60 | 243 | 0.0 | 0.0 | 0.00 | 0.00 | 0.00 | 39 | |
| 20260505152240 | 60 | 256 | 0.0 | 0.0 | 0.00 | 0.00 | 0.00 | 39 | |
| 20260505151909 | 60 | 256 | 0.0 | 0.0 | 0.00 | 0.00 | 0.00 | 39 | |
| 20260505151711 | 59 | 252 | 0.0 | 0.0 | 0.00 | 0.00 | 0.00 | 39 | |
| 20260505151408 | 59 | 252 | 0.0 | 0.0 | 0.00 | 0.00 | 0.00 | 39 | |
| 20260505151312 | 59 | 85 | 0.0 | 0.0 | 0.00 | 0.00 | 0.00 | 39 | |
| 20260505150908 | 59 | 85 | 0.0 | 0.0 | 0.00 | 0.00 | 0.00 | 39 | |
| 20260505150733 | 58 | 152 | 0.0 | 0.0 | 0.00 | 0.00 | 0.00 | 39 | |
| 20260505150408 | 58 | 152 | 0.0 | 0.0 | 0.00 | 0.00 | 0.00 | 39 | |
| 20260505140617 | 56 | 81 | 0.0 | 0.0 | 0.00 | 0.00 | 0.00 | 40 | |
| 20260505140408 | 56 | 81 | 0.0 | 0.0 | 0.00 | 0.00 | 0.00 | 40 | |
| 20260505140237 | 56 | 62 | 0.0 | 1.7 | 0.00 | 0.00 | 0.00 | 40 | |
| 20260505130219 | 55 | 341 | 0.0 | 0.0 | 0.00 | 0.00 | 0.00 | 38 |